Home > Weather > Green Bay > Past weeks

Flag for USA Past Weather in Green Bay, Wisconsin, USA — Yesterday and Last 2 Weeks

Now
83 °F

Sunny.


Feels Like: 86 °F
Forecast: 65 / 87 °F
Wind: 6 mph from West

Location: Austin Straubel International Airport

Current Time: Jul 26, 2016 at 12:54:52 PM

Latest Report: Jul 26, 2016 at 11:53 AM


Visibility: 10 mi

Pressure: 30.03 "Hg

Humidity: 63%

Dew Point: 69 °F

Location of Green BayLocation

Past Weather in Green Bay — Graph

°F

Green Bay Temperature Yesterday

Maximum temperature yesterday: 84 °F (at 4:53 PM)
Minimum temperature yesterday: 65 °F (at 5:53 AM)
Average temperature yesterday: 74 °F

High & Low Weather Summary for the Past Weeks

 TemperatureHumidityPressure
High90 °F (Jul 22, 4:53 PM)100% (Jul 16, 6:53 AM)30.27 "Hg (Jul 16, 6:53 AM)
Low51 °F (Jul 16, 4:03 AM)48% (Jul 22, 4:53 PM)29.64 "Hg (Jul 13, 5:53 PM)
Average73 °F81%29.94 "Hg
* Reported Jul 11 10:53 AM — Jul 26 10:53 AM, Green Bay, Weather by CustomWeather, © 2016

Note: Actual official high and low records may vary slightly from our data, if they occured in-between our weather recording intervals... More about our weather records

Advertising

Green Bay Weather History for the Previous 24 Hours

Scroll right to see more
 ConditionsComfort  
Time TempWeatherWind HumidityBarometerVisibility
10:53 AM
Tue, Jul 26
82 °FSunny.7 mph70%30.04 "Hg10 mi
9:53 AM79 °FSunny.5 mph74%30.04 "Hg10 mi
8:53 AM76 °FSunny.5 mph80%30.05 "Hg10 mi
7:53 AM70 °FSunny.No wind90%30.06 "Hg10 mi
6:53 AM65 °FSunny.No wind100%30.04 "Hg10 mi
5:53 AM62 °FClear.No wind100%30.03 "Hg10 mi
4:53 AM61 °FClear.No wind100%30.03 "Hg10 mi
3:53 AM63 °FClear.5 mph100%30.02 "Hg10 mi
2:53 AM64 °FClear.7 mph100%30.01 "Hg10 mi
1:53 AM65 °FClear.7 mph100%30.01 "Hg10 mi
12:53 AM67 °FClear.7 mph90%30.01 "Hg10 mi
11:53 PM
Mon, Jul 25
68 °FClear.No wind93%30.01 "Hg10 mi
10:53 PM68 °FClear.5 mph93%30.00 "Hg10 mi
9:53 PM69 °FClear.3 mph93%29.98 "Hg10 mi
8:53 PM70 °FSunny.5 mph93%29.97 "Hg10 mi
7:53 PM75 °FPassing clouds.6 mph85%29.96 "Hg10 mi
6:53 PM81 °FSunny.6 mph58%29.96 "Hg10 mi
5:53 PM83 °FPassing clouds.9 mph53%29.96 "Hg10 mi
4:53 PM84 °FScattered clouds.12 mph51%29.96 "Hg10 mi
3:53 PM83 °FSunny.9 mph53%29.96 "Hg10 mi
2:53 PM82 °FPassing clouds.6 mph60%29.96 "Hg10 mi
1:53 PM82 °FPassing clouds.13 mph60%29.95 "Hg10 mi
12:53 PM81 °FSunny.13 mph65%29.97 "Hg10 mi
Weather by CustomWeather, © 2016

See weather overviewHow to use our weather pages